Powrót do katalogu

FENGYUN 1C DEB

LostPO
NORAD 32233·DEBRIS·🇨🇳 China

Wystrzelony May 10, 1999 z Taiyuan Satellite Launch Center

Loading…

Następne Przeloty (najbliższe 24 godziny)

TLE

NieaktualneSource: Space-Track

Epoka: Aug 29, 2022, 08:08 UTC

1 32233U 99025CWF 22241.33897525  .00001406  00000-0  69193-3 0  9993
2 32233  97.6910  81.7830 0253866  28.5964 332.8864 14.03419520772939

Śledź FENGYUN 1C DEB w czasie rzeczywistym z AllMySat

Download on the App Store